Regional Weather Roundup
Issued by NWS

Home | Current Version | Previous Version | Text Only | Print | Product List | Glossary On
Versions: 1 2 3 4 5 6 7 8 9 10 11 12 13 14 15 16 17 18 19 20 21 22 23 24 25 26 27 28 29 30 31 32 33 34 35 36 37 38 39 40 41 42 43 44 45 46 47 48 49 50
000
ASUS43 KMPX 220510
RWRMN
WEATHER ROUNDUP FOR MINNESOTA
NATIONAL WEATHER SERVICE TWIN CITIES/CHANHASSEN MN
1200 AM CDT WED AUG 22 2018


NOTE: "FAIR" INDICATES FEW OR NO CLOUDS BELOW 12,000 FEET WITH NO
SIGNIFICANT WEATHER AND/OR OBSTRUCTIONS TO VISIBILITY. N/A MEANS
CURRENT SKY AND/OR WEATHER CONDITIONS ARE NOT AVAILABLE.

MNZ060>063-068>070-220600-
   Twin Cities Metro

CITY           SKY/WX    TMP DP  RH WIND       PRES   REMARKS
TWIN CITIES    FAIR      64  57  78 W5        30.17S
ST PAUL        FAIR      59  56  89 CALM      30.17S
CRYSTAL        FAIR      59  54  83 W3        30.15S
BLAINE         FAIR      57  57 100 CALM      30.16S
LAKEVILLE      FAIR      57  57 100 CALM      30.18S
EDEN PRAIRIE   FAIR      60  54  80 W6        30.17S
SOUTH ST PAUL  FAIR      62  55  76 W7        30.17R
LAKE ELMO      FAIR      54  54 100 CALM      30.18S
$$
MNZ001>005-007-008-013>017-022>024-027-028-220600-
   Northwest Minnesota

CITY           SKY/WX    TMP DP  RH WIND       PRES   REMARKS
BEMIDJI        FAIR      56  47  71 SW3       30.16F
HALLOCK        FAIR      52  41  66 S3        30.12S
ROSEAU         FAIR      55  46  71 SW7       30.12F
WARROAD        FAIR      57  48  72 SW6       30.12F
THIEF RVR FALL FAIR      56  44  64 S5        30.16F
CROOKSTON      FAIR      54  48  82 S6        30.16S
FOSSTON        FAIR      46  45  93 S7        30.17F
DETROIT LAKES  FAIR      57  50  77 CALM      30.20F
MOORHEAD       FAIR      57  50  77 CALM      30.19S
PARK RAPIDS    FAIR      52  46  80 CALM      30.18S
MAHNOMEN       FAIR      51  46  82 S7        30.17F
$$
MNZ006-009>011-018-025>026-220600-
   North Central Minnesota

CITY           SKY/WX    TMP DP  RH WIND       PRES   REMARKS
BAUDETTE       FAIR      55  47  74 CALM      30.12S
FLAG ISLAND    FAIR      64  46  52 SW10      30.08F
INTL FALLS     FAIR      56  48  74 W5        30.12F
WASKISH        FAIR      50  48  93 CALM      30.13F
BIG FORK       FAIR      46  46 100 CALM      30.14S
LONGVILLE      FAIR      48  48 100 CALM      30.17R
CRANE LAKE     FAIR      48  46  93 CALM      30.13S
ORR            FAIR      54  48  82 CALM      30.11S
COOK           FAIR      50  46  87 CALM      30.13S
WALKER         FAIR      52  47  84 CALM      30.17S
$$
MNZ012-019>021-037-220600-
   Northeast Minnesota

CITY           SKY/WX    TMP DP  RH WIND       PRES   REMARKS
DULUTH         FAIR      56  46  69 NW7       30.12S
ELY            FAIR      54  43  66 NW3       30.11S
HIBBING        FAIR      46  43  89 CALM      30.14S
EVELETH        FAIR      60  46  57 NW6       30.14S
DULUTH HARBOR  FAIR      64  52  63 W12       30.11S
TWO HARBORS    FAIR      55  46  71 W5        30.09S
SILVER BAY       N/A     57 N/A N/A CALM      30.08S
G MARAIS ARPRT FAIR      48  45  87 CALM      30.09S
$$
MNZ029>031-032-039>041-046>048-054>057-064-220600-
   West Central Minnesota

CITY           SKY/WX    TMP DP  RH WIND       PRES   REMARKS
FERGUS FALLS   FAIR      57  54  88 CALM      30.21S
WHEATON        CLEAR     59  48  67 SW5       30.22S
MORRIS         CLEAR     55  54  94 W3        30.20F
ALEXANDRIA     FAIR      60  49  66 W5        30.22S
ELBOW LAKE     FAIR      53  51  95 SW3       30.21S
WADENA         FAIR      52  46  82 CALM      30.19S
GLENWOOD       FAIR      55  48  76 W5        30.21S
APPLETON       CLEAR     55  52  88 W5        30.21S
BENSON         CLEAR     55  52  88 CALM      30.23S
ORTONVILLE     CLEAR     59  52  77 W5        30.22S
MADISON        CLEAR     57  57 100 W5        30.22S
WILLMAR        FAIR      54  50  87 CALM      30.23F
$$
MNZ033>034-036-042>043-049>051-058-059-220600-
   Central Minnesota

CITY           SKY/WX    TMP DP  RH WIND       PRES   REMARKS
ST CLOUD       FAIR      55  49  80 NW6       30.18R
SAUK CENTRE    FAIR      51  48  87 W3        30.21R
PAYNESVILLE    FAIR      51  51  97 W6        30.21S
AITKIN         FAIR      46  45  93 CALM      30.15S
PINE RIVER     FAIR      46  45  93 CALM      30.21R
BRAINERD       FAIR      52  49  89 CALM      30.18R
STAPLES        FAIR      52  45  76 W3        30.18S
LONG PRAIRIE   FAIR      54  46  76 CALM      30.20S
LITTLE FALLS   FAIR      52  50  93 CALM      30.19R
LITCHFIELD     FAIR      61  54  77 CALM      30.20S
BUFFALO        FAIR      60  52  76 W5        30.19S
MAPLE LAKE     FAIR      58  52  79 W3        30.19S
HUTCHINSON     FAIR      55  53  92 W5        30.21S
$$
MNZ037-044-045-052-053-220600-
   East Central Minnesota

CITY           SKY/WX    TMP DP  RH WIND       PRES   REMARKS
PRINCETON      FAIR      54  52  94 W3        30.17S
MORA           FAIR      54  52  94 CALM      30.18S
CAMBRIDGE      FAIR      55  55 100 CALM      30.16S
RUSH CITY      MOCLDY    53  52  95 CALM      30.16R
MOOSE LAKE     FAIR      55  50  82 NW3       30.13S
HINCKLEY       FAIR      55  54  94 W3        30.16R
CLOQUET        FAIR      55  46  71 W7        30.14R
MCGREGOR       FAIR      52  46  82 CALM      30.16S
$$
MNZ071>073-080-081-089-090-097-098-220600-
   Southwest Minnesota

CITY           SKY/WX    TMP DP  RH WIND       PRES   REMARKS
MONTEVIDEO     CLEAR     59  50  72 W5        30.22S
GRANITE FALLS  CLEAR     55  53  94 W3        30.23S
CANBY          CLEAR     59  54  82 SW3       30.24S
MARSHALL       CLEAR     54  50  86 W3        30.24S
REDWOOD FALLS  CLEAR     57  51  80 W7        30.21S
OLIVIA         CLEAR     55  52  88 CALM      30.21S
PIPESTONE      CLEAR     55  52  88 CALM      30.25F
WINDOM         CLEAR     54  48  82 W5        30.23F
WORTHINGTON    CLOUDY    53  50  89 W5        30.26S
JACKSON        CLOUDY    54  50  87 W3        30.24F
TRACY          CLEAR     58  51  76 W5        30.24S
$$
MNZ065>067-074>077-082>085-091>093-220600-
   South Central Minnesota

CITY           SKY/WX    TMP DP  RH WIND       PRES   REMARKS
MANKATO        FAIR      59  53  80 W6        30.21R
NEW ULM        CLEAR     55  52  88 W6        30.21S
ST JAMES       CLEAR     55  52  88 SW5       30.23S
FAIRMONT       CLOUDY    56  53  90 NW3       30.23R
GLENCOE        FAIR      57  52  82 NW6       30.19S
FARIBAULT      FAIR      54  54 100 CALM      30.19S
WASECA         FAIR      52  50  93 SW3       30.21S
ALBERT LEA     FAIR      57  57 100 CALM      30.20S
$$
MNZ078>079-086>088-094>096-220600-
   Southeast Minnesota

CITY           SKY/WX    TMP DP  RH WIND       PRES   REMARKS
ROCHESTER      FAIR      55  52  89 W8        30.19S
RED WING       FAIR      55  54  94 CALM      30.16S
STANTON        FAIR      54  52  93 CALM      30.17S
DODGE CENTER   FAIR      54  52  94 W5        30.19S
WINONA         FAIR      55  54  94 CALM      30.17R
AUSTIN         FAIR      55  54  94 CALM      30.19S
$$
ABBREVIATIONS USED IN REMARKS
   TC - TEMPERATURES IN CELSIUS
  WCI - WIND CHILL INDEX
   HX - HEAT INDEX
  VSB - VISIBILITY
$$




USA.gov is the U.S. government's official web portal to all federal, state and local government web resources and services.